ENBN Weather Reports


time (UTC)temp
F
wind
direction
speed
knots
gust
knots
rain 1hr
in
rain 24hr
in
rain mn
in
humidity
%
barometer
mb
20260503070308 39 250 7.0 0.0 0.00 0.00 0.00 51 1009.0
20260503060307 39 270 5.2 0.0 0.00 0.00 0.00 48 1009.0
20260503053306 39 280 7.0 0.0 0.00 0.00 0.00 48 1009.0
20260503050307 39 280 7.0 0.0 0.00 0.00 0.00 51 1010.0
20260503043309 39 280 7.8 0.0 0.00 0.00 0.00 48 1009.0
20260503040306 39 290 7.0 0.0 0.00 0.00 0.00 51 1009.0
20260503033307 37 290 7.0 0.0 0.00 0.00 0.00 59 1010.0
20260503030307 37 310 8.7 0.0 0.00 0.00 0.00 69 1010.0
20260503023306 37 260 6.1 0.0 0.00 0.00 0.00 64 1010.0
20260503020307 37 280 5.2 0.0 0.00 0.00 0.00 69 1010.0
20260503013308 37 300 6.1 0.0 0.00 0.00 0.00 69 1010.0
20260503010309 37 310 7.8 0.0 0.00 0.00 0.00 69 1010.0
20260503003309 39 310 10.4 0.0 0.00 0.00 0.00 64 1010.0
20260503000306 39 290 10.4 0.0 0.00 0.00 0.00 51 1010.0
20260502233310 39 300 10.4 0.0 0.00 0.00 0.00 64 1010.0
20260502230307 39 300 8.7 0.0 0.00 0.00 0.00 64 1010.0
20260502223307 39 310 7.0 0.0 0.00 0.00 0.00 69 1010.0
20260502220307 37 320 7.8 0.0 0.00 0.00 0.00 80 1010.0
20260502213308 37 330 7.0 0.0 0.00 0.00 0.00 86 1010.0
20260502210306 37 310 12.2 0.0 0.00 0.00 0.00 86 1010.0
20260502203306 37 290 12.2 0.0 0.00 0.00 0.00 86 1010.0
20260502200307 39 290 13.0 0.0 0.00 0.00 0.00 80 1009.0
20260502193309 39 280 6.1 0.0 0.00 0.00 0.00 86 1009.0
20260502190307 37 230 7.0 0.0 0.00 0.00 0.00 86 1008.0
20260502183306 39 240 11.3 0.0 0.00 0.00 0.00 86 1008.0
20260502180308 39 230 13.9 0.0 0.00 0.00 0.00 86 1008.0
20260502170308 42 240 15.6 0.0 0.00 0.00 0.00 65 1008.0
20260502163308 42 250 13.9 0.0 0.00 0.00 0.00 65 1008.0
20260502160309 41 270 10.4 0.0 0.00 0.00 0.00 75 1009.0
20260502150309 37 260 10.4 0.0 0.00 0.00 0.00 86 1009.0
20260502130309 42 260 12.2 0.0 0.00 0.00 0.00 65 1009.0
20260502123308 46 240 13.9 0.0 0.00 0.00 0.00 65 1009.0
20260502120309 44 240 13.0 0.0 0.00 0.00 0.00 56 1009.0
20260502113310 42 230 12.2 0.0 0.00 0.00 0.00 70 1009.0
20260502110309 44 230 11.3 0.0 0.00 0.00 0.00 65 1008.0
20260502103308 42 240 8.7 0.0 0.00 0.00 0.00 70 1008.0
20260502100308 44 250 12.2 0.0 0.00 0.00 0.00 56 1008.0
20260502090308 42 250 12.2 0.0 0.00 0.00 0.00 56 1008.0